Location: Writing-on-Stone Provincial Park
(49.0825°N, 111.6163°W)
Time: 02:39:25
(UTC-06:00)

Amateur Radio Satellites - All Passes

Search period start: 29 July 2014 02:09
Search period end: 30 July 2014 02:09
Location: Writing-on-Stone Provincial Park, 49.0825°N, 111.6163°W

Satellite Date Start Highest point End Downlink Frequencies (MHz)
Time Altitude Azimuth
Sapphire 29 Jul 02:09:16 02:14:41 86° 124° (SE) 02:20:09 437.095 MHz 1200 baud AX-25 AFSK
Oscar 19 29 Jul 02:29:18 02:33:58 33° 95° (E) 02:38:37 437.125 CW, 437.150 USB
PCSat 29 Jul 02:42:56 02:48:15 55° 311° (NW) 02:53:36 145.825 MHz
AO-Echo 29 Jul 02:46:13 02:50:18 24° 91° (E) 02:54:16 ?
Oscar 16 29 Jul 02:57:28 03:02:35 59° 101° (E) 03:07:40 437.025 USB, Beacon 2401.1428
OPAL 29 Jul 03:06:49 03:10:38 23° 57° (ENE) 03:14:28 ?
ISS 29 Jul 03:15:51 03:19:10 54° 356° (N) 03:22:29 145.800 FM
JAS-1B 29 Jul 03:16:28 03:25:10 38° 90° (E) 03:32:47 435.800 - 435.900 CW/SSB
ITAMSAT 1 29 Jul 03:18:29 03:23:24 42° 98° (E) 03:28:16 435.822 SSB
TMSAT-1 29 Jul 03:36:28 03:40:29 21° 91° (E) 03:44:28 436.925 FM
AO-27 29 Jul 03:37:36 03:42:46 61° 102° (ESE) 03:47:53 436.795 MHz FM
Uribyol 2 29 Jul 03:37:49 03:42:58 64° 102° (ESE) 03:48:05 436.500 FM
Sapphire 29 Jul 03:54:23 03:58:48 25° 326° (NW) 04:03:15 437.095 MHz 1200 baud AX-25 AFSK
Gurwin Techsat 1B 29 Jul 04:00:14 04:05:20 44° 98° (E) 04:10:22 435.225 FM
Oscar 19 29 Jul 04:08:36 04:13:23 40° 294° (WNW) 04:18:11 437.125 CW, 437.150 USB
AO-Echo 29 Jul 04:24:26 04:29:25 52° 291° (WNW) 04:34:13 ?
PCSat 29 Jul 04:29:15 04:32:53 18° 334° (NNW) 04:36:32 145.825 MHz
Oscar 16 29 Jul 04:37:30 04:41:34 24° 300° (WNW) 04:45:38 437.025 USB, Beacon 2401.1428
AO-7 29 Jul 04:38:13 04:44:38 24° 90° (E) 04:50:59 29.400 - 29.500 MHz
Uosat F 29 Jul 04:43:30 04:47:05 19° 91° (E) 04:50:38 435.120 FM
OPAL 29 Jul 04:44:16 04:49:09 60° 256° (WSW) 04:54:05 ?
ISS 29 Jul 04:52:45 04:56:07 74° 16° (NNE) 04:59:29 145.800 FM
MaSat-1 29 Jul 04:55:30 04:58:38 16° 32° (NNE) 05:01:46 437.345 MHz
ITAMSAT 1 29 Jul 04:58:14 05:02:48 32° 297° (WNW) 05:07:20 435.822 SSB
JAS-1B 29 Jul 05:06:43 05:16:14 65° 294° (WNW) 05:24:30 435.800 - 435.900 CW/SSB
TMSAT-1 29 Jul 05:15:36 05:20:51 63° 289° (WNW) 05:26:04 436.925 FM
AO-27 29 Jul 05:17:51 05:21:53 23° 301° (WNW) 05:25:54 436.795 MHz FM
Uribyol 2 29 Jul 05:18:06 05:22:02 22° 301° (WNW) 05:25:57 436.500 FM
KITSAT 1 29 Jul 05:24:20 05:28:34 15° 99° (E) 05:32:47 435.175 FM
STRAND 1 29 Jul 05:31:18 05:34:07 15° 54° (NE) 05:36:57 ?
Gurwin Techsat 1B 29 Jul 05:40:30 05:45:10 32° 297° (WNW) 05:49:49 435.225 FM
Sapphire 29 Jul 05:42:10 05:44:16 12° 351° (N) 05:46:22 437.095 MHz 1200 baud AX-25 AFSK
PCSat 29 Jul 06:16:53 06:18:39 11° 1° (N) 06:20:24 145.825 MHz
Uosat F 29 Jul 06:21:21 06:26:21 65° 289° (WNW) 06:31:17 435.120 FM
ISS 29 Jul 06:29:39 06:32:40 31° 215° (SW) 06:35:41 145.800 FM
AO-7 29 Jul 06:30:04 06:38:29 88° 291° (WNW) 06:46:48 29.400 - 29.500 MHz
MaSat-1 29 Jul 06:31:58 06:37:11 53° 53° (NE) 06:42:15 437.345 MHz
JAS-2 29 Jul 06:46:51 06:51:37 24° 88° (E) 06:56:00 435.800 - 435.900 CW/SSB, 435.910 FM
TMSAT-1 29 Jul 06:57:45 06:59:47 12° 309° (NW) 07:01:48 436.925 FM
JAS-1B 29 Jul 06:58:09 07:04:52 22° 318° (NW) 07:11:10 435.800 - 435.900 CW/SSB
Hamsat 29 Jul 07:01:30 07:05:28 35° 96° (E) 07:09:27 145.90 MHz
STRAND 1 29 Jul 07:07:23 07:12:32 81° 73° (ENE) 07:17:43 ?
KITSAT 1 29 Jul 07:14:27 07:22:26 66° 120° (ESE) 07:30:27 435.175 FM
Sapphire 29 Jul 07:27:17 07:30:10 14° 18° (NNE) 07:33:03 437.095 MHz 1200 baud AX-25 AFSK
Saudisat 1A 29 Jul 07:45:03 07:48:21 21° 114° (ESE) 07:51:41 436.775 MHz
PCSat 29 Jul 08:00:34 08:04:22 19° 27° (NNE) 08:08:09 145.825 MHz
Uosat F 29 Jul 08:02:23 08:04:12 12° 309° (NW) 08:06:01 435.120 FM
MaSat-1 29 Jul 08:09:45 08:14:18 29° 253° (WSW) 08:18:41 437.345 MHz
AO-7 29 Jul 08:23:41 08:30:18 27° 313° (NW) 08:36:53 29.400 - 29.500 MHz
JAS-2 29 Jul 08:31:16 08:37:20 60° 291° (WNW) 08:42:44 435.800 - 435.900 CW/SSB, 435.910 FM
Hamsat 29 Jul 08:37:42 08:41:21 28° 294° (WNW) 08:45:01 145.90 MHz
STRAND 1 29 Jul 08:49:17 08:52:22 16° 272° (W) 08:55:28 ?
SO-67 29 Jul 08:53:38 08:57:08 81° 284° (WNW) 09:00:37 435.3500 MHz FM
HO-68 29 Jul 08:57:11 09:00:46 14° 84° (E) 09:04:20 435.675 MHz FM
Sapphire 29 Jul 09:10:12 09:15:14 37° 42° (NE) 09:20:14 437.095 MHz 1200 baud AX-25 AFSK
KITSAT 1 29 Jul 09:10:39 09:18:18 44° 323° (NW) 09:26:00 435.175 FM
Saudisat 1A 29 Jul 09:23:11 09:27:34 62° 313° (NW) 09:31:59 436.775 MHz
PCSat 29 Jul 09:43:31 09:48:55 60° 50° (NE) 09:54:17 145.825 MHz
Oscar 11 29 Jul 10:03:41 10:05:48 13° 88° (E) 10:07:54 145.825 FM, Beacon 2401.500 USB
JAS-2 29 Jul 10:18:19 10:21:02 13° 315° (NW) 10:23:39 435.800 - 435.900 CW/SSB, 435.910 FM
HO-68 29 Jul 10:42:38 10:49:48 70° 105° (ESE) 10:56:55 435.675 MHz FM
UKube-1 29 Jul 10:53:23 10:57:45 70° 103° (ESE) 11:02:05 145.840 MHz, 145.915 MHz
Sapphire 29 Jul 10:53:37 10:58:50 49° 243° (WSW) 11:04:02 437.095 MHz 1200 baud AX-25 AFSK
Saudisat 1A 29 Jul 11:05:02 11:08:02 18° 335° (NNW) 11:11:02 436.775 MHz
KITSAT 1 29 Jul 11:09:41 11:16:03 24° 351° (N) 11:22:25 435.175 FM
PCSat 29 Jul 11:27:31 11:31:59 27° 250° (WSW) 11:36:25 145.825 MHz
Oscar 11 29 Jul 11:38:10 11:42:31 75° 286° (WNW) 11:46:51 145.825 FM, Beacon 2401.500 USB
FUNcube-1 29 Jul 12:00:44 12:04:55 75° 103° (ESE) 12:09:07 145.950 - 145.970 MHz USB
Oscar 19 29 Jul 12:14:30 12:16:48 13° 52° (NE) 12:19:06 437.125 CW, 437.150 USB
JAS-1B 29 Jul 12:18:29 12:24:04 17° 36° (NE) 12:29:44 435.800 - 435.900 CW/SSB
UKube-1 29 Jul 12:30:45 12:33:28 17° 302° (WNW) 12:36:11 145.840 MHz, 145.915 MHz
HO-68 29 Jul 12:30:59 12:37:01 31° 305° (NW) 12:43:02 435.675 MHz FM
SO-50 29 Jul 12:32:35 12:35:46 19° 113° (ESE) 12:39:00 436.795 FM
Oscar 16 29 Jul 12:41:05 12:44:53 22° 58° (ENE) 12:48:42 437.025 USB, Beacon 2401.1428
Saudisat 1A 29 Jul 12:48:16 12:49:24 11° 360° (N) 12:50:32 436.775 MHz
ITAMSAT 1 29 Jul 13:03:37 13:06:55 17° 55° (NE) 13:10:14 435.822 SSB
KITSAT 1 29 Jul 13:07:30 13:14:22 29° 21° (NNE) 13:21:12 435.175 FM
RS-15 29 Jul 13:11:10 13:20:30 33° 106° (ESE) 13:29:39 29.354 - 29.394 USB, Beacon 29.352 USB
Oscar 11 29 Jul 13:16:48 13:17:57 11° 305° (NW) 13:19:06 145.825 FM, Beacon 2401.500 USB
Uribyol 2 29 Jul 13:21:55 13:26:01 24° 60° (ENE) 13:30:08 436.500 FM
AO-27 29 Jul 13:21:58 13:26:03 24° 59° (ENE) 13:30:09 436.795 MHz FM
FUNcube-1 29 Jul 13:38:36 13:40:49 14° 301° (WNW) 13:43:01 145.950 - 145.970 MHz USB
Gurwin Techsat 1B 29 Jul 13:47:55 13:51:28 18° 56° (NE) 13:55:00 435.225 FM
Oscar 19 29 Jul 13:50:10 13:55:15 71° 72° (ENE) 14:00:23 437.125 CW, 437.150 USB
AO-7 29 Jul 13:53:42 13:58:16 16° 35° (NE) 14:02:50 29.400 - 29.500 MHz
AO-Echo 29 Jul 14:02:26 14:07:30 48° 68° (ENE) 14:12:36 ?
JAS-1B 29 Jul 14:03:28 14:12:10 48° 60° (ENE) 14:21:27 435.800 - 435.900 CW/SSB
SO-50 29 Jul 14:11:23 14:15:51 68° 312° (NW) 14:20:28 436.795 FM
Oscar 16 29 Jul 14:18:43 14:23:48 66° 258° (WSW) 14:28:55 437.025 USB, Beacon 2401.1428
Saudisat 1A 29 Jul 14:27:49 14:30:47 17° 24° (NNE) 14:33:43 436.775 MHz
UOSAT-12 29 Jul 14:30:14 14:33:46 22° 114° (ESE) 14:37:21 437.025 FM, 437.400 FM
ITAMSAT 1 29 Jul 14:40:31 14:45:45 88° 255° (WSW) 14:51:00 435.822 SSB
Uribyol 2 29 Jul 15:00:02 15:05:09 59° 259° (WSW) 15:10:18 436.500 FM
AO-27 29 Jul 15:00:02 15:05:12 61° 258° (WSW) 15:10:23 436.795 MHz FM
TMSAT-1 29 Jul 15:00:58 15:06:03 48° 68° (ENE) 15:11:08 436.925 FM
KITSAT 1 29 Jul 15:03:17 15:11:23 67° 47° (NE) 15:19:24 435.175 FM
RS-15 29 Jul 15:20:38 15:31:44 83° 311° (NW) 15:42:45 29.354 - 29.394 USB, Beacon 29.352 USB
Gurwin Techsat 1B 29 Jul 15:25:28 15:30:48 84° 255° (WSW) 15:36:09 435.225 FM
Oscar 19 29 Jul 15:31:41 15:35:08 18° 271° (W) 15:38:37 437.125 CW, 437.150 USB
AO-7 29 Jul 15:41:15 15:49:08 49° 58° (ENE) 15:57:02 29.400 - 29.500 MHz
AO-Echo 29 Jul 15:41:53 15:46:28 29° 267° (W) 15:51:04 ?
JAS-1B 29 Jul 15:53:27 16:02:23 59° 262° (W) 16:12:11 435.800 - 435.900 CW/SSB
SO-50 29 Jul 15:53:59 15:57:16 19° 335° (NNW) 16:00:37 436.795 FM
Uosat F 29 Jul 16:00:21 16:05:03 41° 66° (ENE) 16:09:47 435.120 FM
Saudisat 1A 29 Jul 16:06:52 16:11:15 59° 46° (NE) 16:15:36 436.775 MHz
UOSAT-12 29 Jul 16:08:54 16:13:31 64° 313° (NW) 16:18:14 437.025 FM, 437.400 FM
ITAMSAT 1 29 Jul 16:23:25 16:26:01 14° 273° (W) 16:28:37 435.822 SSB
TMSAT-1 29 Jul 16:41:41 16:46:12 28° 267° (W) 16:50:44 436.925 FM
OPAL 29 Jul 16:50:14 16:54:23 25° 96° (E) 16:58:33 ?
KITSAT 1 29 Jul 16:59:10 17:06:22 37° 250° (WSW) 17:13:32 435.175 FM
JAS-2 29 Jul 17:02:31 17:08:20 25° 56° (NE) 17:13:47 435.800 - 435.900 CW/SSB, 435.910 FM
Gurwin Techsat 1B 29 Jul 17:09:06 17:11:36 13° 274° (W) 17:14:05 435.225 FM
AO-7 29 Jul 17:33:54 17:41:56 49° 259° (W) 17:50:02 29.400 - 29.500 MHz
RS-15 29 Jul 17:35:38 17:45:47 40° 340° (NNW) 17:56:00 29.354 - 29.394 USB, Beacon 29.352 USB
SO-50 29 Jul 17:37:53 17:39:39 12° 360° (N) 17:41:26 436.795 FM
Uosat F 29 Jul 17:39:31 17:43:57 31° 265° (W) 17:48:26 435.120 FM
Saudisat 1A 29 Jul 17:47:07 17:50:30 22° 245° (WSW) 17:53:51 436.775 MHz
JAS-1B 29 Jul 17:50:21 17:55:09 15° 285° (WNW) 18:00:10 435.800 - 435.900 CW/SSB
UOSAT-12 29 Jul 17:51:12 17:54:34 19° 335° (NNW) 17:57:59 437.025 FM, 437.400 FM
Hamsat 29 Jul 17:58:50 18:02:46 41° 69° (ENE) 18:06:45 145.90 MHz
OPAL 29 Jul 18:28:38 18:33:33 53° 294° (WNW) 18:38:30 ?
JAS-2 29 Jul 18:44:52 18:52:39 90° 252° (WSW) 18:59:50 435.800 - 435.900 CW/SSB, 435.910 FM
STRAND 1 29 Jul 19:14:46 19:18:29 20° 91° (E) 19:22:10 ?
SO-50 29 Jul 19:18:46 19:22:03 19° 24° (NNE) 19:25:23 436.795 FM
HO-68 29 Jul 19:30:27 19:35:28 21° 48° (NE) 19:40:29 435.675 MHz FM
SO-67 29 Jul 19:30:29 19:33:55 62° 74° (ENE) 19:37:22 435.3500 MHz FM
UOSAT-12 29 Jul 19:34:37 19:36:34 12° 0° (N) 19:38:30 437.025 FM, 437.400 FM
Hamsat 29 Jul 19:35:41 19:38:56 22° 268° (W) 19:42:14 145.90 MHz
RS-15 29 Jul 19:51:36 20:01:36 38° 14° (NNE) 20:11:45 29.354 - 29.394 USB, Beacon 29.352 USB
OPAL 29 Jul 20:10:29 20:11:23 10° 313° (NW) 20:12:18 ?
UKube-1 29 Jul 20:19:02 20:21:27 15° 57° (ENE) 20:23:53 145.840 MHz, 145.915 MHz
JAS-2 29 Jul 20:32:47 20:38:25 22° 272° (W) 20:43:49 435.800 - 435.900 CW/SSB, 435.910 FM
STRAND 1 29 Jul 20:53:04 20:58:08 64° 289° (WNW) 21:03:10 ?
SO-50 29 Jul 20:58:51 21:03:33 61° 46° (NE) 21:08:18 436.795 FM
Oscar 11 29 Jul 21:02:33 21:05:33 19° 61° (ENE) 21:08:34 145.825 FM, Beacon 2401.500 USB
SO-67 29 Jul 21:06:39 21:07:24 11° 272° (W) 21:08:10 435.3500 MHz FM
HO-68 29 Jul 21:15:00 21:22:10 78° 69° (ENE) 21:29:20 435.675 MHz FM
UOSAT-12 29 Jul 21:15:08 21:18:33 19° 25° (NNE) 21:21:56 437.025 FM, 437.400 FM
FUNcube-1 29 Jul 21:27:26 21:29:31 14° 58° (ENE) 21:31:36 145.950 - 145.970 MHz USB
UKube-1 29 Jul 21:52:43 21:57:05 80° 256° (WSW) 22:01:30 145.840 MHz, 145.915 MHz
MaSat-1 29 Jul 22:03:57 22:08:10 65° 116° (ESE) 22:13:02 437.345 MHz
RS-15 29 Jul 22:05:07 22:16:08 71° 45° (NE) 22:27:27 29.354 - 29.394 USB, Beacon 29.352 USB
STRAND 1 29 Jul 22:34:29 22:36:23 12° 309° (NW) 22:38:15 ?
Oscar 11 29 Jul 22:37:08 22:41:22 57° 259° (W) 22:45:38 145.825 FM, Beacon 2401.500 USB
SO-50 29 Jul 22:40:00 22:43:48 24° 245° (WSW) 22:47:38 436.795 FM
UOSAT-12 29 Jul 22:54:53 22:59:36 63° 47° (NE) 23:04:17 437.025 FM, 437.400 FM
FUNcube-1 29 Jul 23:01:04 23:05:23 82° 257° (WSW) 23:09:37 145.950 - 145.970 MHz USB
HO-68 29 Jul 23:04:59 23:10:36 24° 269° (W) 23:16:16 435.675 MHz FM
MaSat-1 29 Jul 23:42:17 23:46:01 24° 319° (NW) 23:50:07 437.345 MHz
Sapphire 30 Jul 00:00:25 00:01:53 11° 101° (ESE) 00:03:22 437.095 MHz 1200 baud AX-25 AFSK
RS-15 30 Jul 00:17:55 00:27:55 42° 249° (WSW) 00:38:15 29.354 - 29.394 USB, Beacon 29.352 USB
PCSat 30 Jul 00:30:38 00:34:43 22° 108° (ESE) 00:38:50 145.825 MHz
UOSAT-12 30 Jul 00:35:43 00:39:23 23° 246° (WSW) 00:43:01 437.025 FM, 437.400 FM
ISS 30 Jul 00:50:18 00:53:33 49° 151° (SSE) 00:56:49 145.800 FM
Sapphire 30 Jul 01:38:56 01:44:17 67° 120° (ESE) 01:49:41 437.095 MHz 1200 baud AX-25 AFSK
JAS-1B 30 Jul 01:50:18 01:51:13 10° 70° (ENE) 01:52:07 435.800 - 435.900 CW/SSB
Oscar 19 30 Jul 01:58:32 02:02:06 19° 89° (E) 02:05:39 437.125 CW, 437.150 USB
